Weather History for Greenville, NC

Change the Weather History Date:

Friday, September 13, 2013

  Actual Average Record
Temperature  
Mean Temperature 77 °F -  
Max Temperature 86 °F 84 °F 98 °F (1933)
Min Temperature 68 °F 61 °F 50 °F (1939)
Cooling Degree Days 12    
Growing Degree Days 27 (Base 50)    
Moisture  
Dew Point 66 °F    
Average Humidity 72    
Maximum Humidity 100    
Minimum Humidity 45    
Precipitation  
Precipitation 0.00 in - - ()
Sea Level Pressure  
Sea Level Pressure 29.81 in    
Wind  
Wind Speed 5 mph (NW)    
Max Wind Speed 9 mph    
Max Gust Speed -    
Visibility 10 miles    
Events      
Averages and records for this station are not official NWS values.
T = Trace of Precipitation, MM = Missing Value Source: NWS Daily Summary

Daily Weather History Graph

Daily Weather History Graph

Search for Another Location

Airport:

Trip Planner

Search our weather history database for the weather conditions in past years. The results will help you decide how hot, cold, wet, or windy it might be!

Date:

Astronomy

Sep. 13, 2013 Rise Set
Actual Time 6:50 AM EDT 7:19 PM EDT
Civil Twilight 6:25 AM EDT 7:44 PM EDT
Nautical Twilight 5:55 AM EDT 8:14 PM EDT
Astronomical Twilight 5:24 AM EDT 8:45 PM EDT
Moon 2:58 PM EDT (9/13) 12:27 AM EDT (9/13)
Length of Visible Light 13h 19m
Length of Day
12h 28m
First Quarter, 61% of the Moon is Illuminated
Sep 13
First Quarter
Sep 19
Full
Sep 26
Last Quarter
Oct 4
New
Oct 11
First Quarter

Hourly Weather History & Observations

Time (EDT) Temp. Heat Index Dew Point Humidity Pressure Visibility Wind Dir Wind Speed Gust Speed Precip Events Conditions
12:15 AM 75.2 °F - 69.8 °F 83% 29.83 in 10.0 mi SW 5.8 mph - N/A   Clear
12:35 AM 75.2 °F - 69.8 °F 83% 29.82 in 10.0 mi SW 6.9 mph - N/A   Clear
12:55 AM 75.2 °F - 69.8 °F 83% 29.82 in 10.0 mi SW 8.1 mph - N/A   Clear
1:15 AM 77.0 °F - 71.6 °F 83% 29.81 in 10.0 mi SW 8.1 mph - N/A   Clear
1:35 AM 75.2 °F - 69.8 °F 83% 29.81 in 10.0 mi SW 8.1 mph - N/A   Clear
1:55 AM 73.4 °F - 69.8 °F 88% 29.80 in 10.0 mi SW 6.9 mph - N/A   Clear
2:15 AM 73.4 °F - 69.8 °F 88% 29.80 in 10.0 mi SW 6.9 mph - N/A   Clear
2:35 AM 73.4 °F - 69.8 °F 88% 29.80 in 10.0 mi SW 5.8 mph - N/A   Clear
2:55 AM 73.4 °F - 69.8 °F 88% 29.79 in 10.0 mi SW 5.8 mph - N/A   Clear
3:15 AM 73.4 °F - 69.8 °F 88% 29.79 in 10.0 mi Calm Calm - N/A   Clear
3:35 AM 71.6 °F - 69.8 °F 94% 29.78 in 10.0 mi WSW 3.5 mph - N/A   Clear
3:55 AM 71.6 °F - 69.8 °F 94% 29.79 in 10.0 mi Calm Calm - N/A   Clear
4:15 AM 71.6 °F - 69.8 °F 94% 29.78 in 10.0 mi Calm Calm - N/A   Clear
4:35 AM 71.6 °F - 69.8 °F 94% 29.78 in 7.0 mi WSW 3.5 mph - N/A   Clear
4:55 AM 71.6 °F - 69.8 °F 94% 29.77 in 7.0 mi WSW 3.5 mph - N/A   Clear
5:15 AM 71.6 °F - 69.8 °F 94% 29.77 in 7.0 mi Calm Calm - N/A   Clear
5:35 AM 71.6 °F - 69.8 °F 94% 29.78 in 7.0 mi Calm Calm - N/A   Clear
5:55 AM 69.8 °F - 69.8 °F 100% 29.78 in 7.0 mi Calm Calm - N/A   Clear
6:15 AM 69.8 °F - 69.8 °F 100% 29.78 in 7.0 mi WSW 3.5 mph - N/A   Clear
6:35 AM 69.8 °F - 69.8 °F 100% 29.79 in 7.0 mi Calm Calm - N/A   Clear
6:55 AM 71.6 °F - 69.8 °F 94% 29.79 in 7.0 mi Calm Calm - N/A   Clear
7:15 AM 71.6 °F - 69.8 °F 94% 29.79 in 5.0 mi Calm Calm - N/A   Clear
7:35 AM 71.6 °F - 69.8 °F 94% 29.80 in 7.0 mi Calm Calm - N/A   Clear
7:55 AM 71.6 °F - 69.8 °F 94% 29.80 in 10.0 mi West 3.5 mph - N/A   Clear
8:15 AM 73.4 °F - 69.8 °F 88% 29.80 in 10.0 mi WNW 3.5 mph - N/A   Clear
8:35 AM 73.4 °F - 69.8 °F 88% 29.81 in 10.0 mi West 4.6 mph - N/A   Clear
8:55 AM 73.4 °F - 69.8 °F 88% 29.81 in 10.0 mi NW 3.5 mph - N/A   Clear
9:15 AM 73.4 °F - 68.0 °F 83% 29.81 in 10.0 mi WNW 3.5 mph - N/A   Clear
9:35 AM 75.2 °F - 68.0 °F 78% 29.81 in 10.0 mi WNW 5.8 mph - N/A   Clear
9:55 AM 77.0 °F - 68.0 °F 74% 29.82 in 10.0 mi WNW 6.9 mph - N/A   Clear
10:15 AM 77.0 °F - 68.0 °F 74% 29.82 in 10.0 mi Calm Calm - N/A   Clear
10:35 AM 78.8 °F - 68.0 °F 69% 29.82 in 10.0 mi NNW 6.9 mph - N/A   Clear
10:55 AM 80.6 °F 82.7 °F 66.2 °F 61% 29.82 in 10.0 mi NNW 9.2 mph - N/A   Clear
11:15 AM 82.4 °F 85.4 °F 68.0 °F 62% 29.81 in 10.0 mi NW 6.9 mph - N/A   Clear
11:35 AM 82.4 °F 84.6 °F 66.2 °F 58% 29.81 in 10.0 mi NNW 6.9 mph - N/A   Clear
11:55 AM 82.4 °F 83.9 °F 64.4 °F 54% 29.81 in 10.0 mi NNW 5.8 mph - N/A   Clear
12:15 PM 82.4 °F 83.9 °F 64.4 °F 54% 29.81 in 10.0 mi North 4.6 mph - N/A   Clear
12:35 PM 84.2 °F 85.6 °F 64.4 °F 51% 29.81 in 10.0 mi North 8.1 mph - N/A   Clear
12:55 PM 84.2 °F 85.6 °F 64.4 °F 51% 29.80 in 10.0 mi NNW 4.6 mph - N/A   Clear
1:15 PM 84.2 °F 85.6 °F 64.4 °F 51% 29.80 in 10.0 mi North 4.6 mph - N/A   Clear
1:35 PM 86.0 °F 86.6 °F 62.6 °F 45% 29.79 in 10.0 mi Calm Calm - N/A   Clear
1:55 PM 86.0 °F 87.3 °F 64.4 °F 48% 29.78 in 10.0 mi North 6.9 mph - N/A   Clear
2:15 PM 86.0 °F 86.6 °F 62.6 °F 45% 29.78 in 10.0 mi NNW 6.9 mph - N/A   Clear
2:35 PM 86.0 °F 86.6 °F 62.6 °F 45% 29.77 in 10.0 mi North 3.5 mph - N/A   Clear
2:55 PM 86.0 °F 86.6 °F 62.6 °F 45% 29.77 in 10.0 mi NNW 5.8 mph - N/A   Clear
3:15 PM 86.0 °F 86.6 °F 62.6 °F 45% 29.77 in 10.0 mi NW 5.8 mph - N/A   Clear
3:35 PM 86.0 °F 86.6 °F 62.6 °F 45% 29.77 in 10.0 mi NNW 5.8 mph - N/A   Clear
3:55 PM 84.2 °F 85.0 °F 62.6 °F 48% 29.77 in 10.0 mi Calm Calm - N/A   Clear
4:15 PM 86.0 °F 86.6 °F 62.6 °F 45% 29.77 in 10.0 mi West 6.9 mph - N/A   Clear
4:35 PM 84.2 °F 85.0 °F 62.6 °F 48% 29.77 in 10.0 mi NW 4.6 mph - N/A   Clear
4:55 PM 86.0 °F 86.6 °F 62.6 °F 45% 29.77 in 10.0 mi Calm Calm - N/A   Clear
5:15 PM 86.0 °F 86.6 °F 62.6 °F 45% 29.77 in 10.0 mi NW 4.6 mph - N/A   Clear
5:35 PM 86.0 °F 86.6 °F 62.6 °F 45% 29.77 in 10.0 mi NW 6.9 mph - N/A   Clear
5:55 PM 84.2 °F 85.0 °F 62.6 °F 48% 29.77 in 10.0 mi WNW 3.5 mph - N/A   Clear
6:15 PM 82.4 °F 83.9 °F 64.4 °F 54% 29.78 in 10.0 mi North 9.2 mph - N/A   Clear
6:35 PM 80.6 °F 82.3 °F 64.4 °F 58% 29.78 in 10.0 mi NNE 6.9 mph - N/A   Clear
6:55 PM 77.0 °F - 64.4 °F 65% 29.79 in 10.0 mi NNE 5.8 mph - N/A   Clear
7:15 PM 75.2 °F - 64.4 °F 69% 29.80 in 10.0 mi NNE 3.5 mph - N/A   Clear
7:35 PM 75.2 °F - 64.4 °F 69% 29.81 in 10.0 mi Calm Calm - N/A   Scattered Clouds
7:55 PM 73.4 °F - 66.2 °F 78% 29.82 in 10.0 mi Calm Calm - N/A   Scattered Clouds
8:15 PM 73.4 °F - 64.4 °F 73% 29.83 in 10.0 mi NE 6.9 mph - N/A   Clear
8:35 PM 73.4 °F - 64.4 °F 73% 29.85 in 10.0 mi NNE 8.1 mph - N/A   Scattered Clouds
8:55 PM 77.0 °F - 62.6 °F 61% 29.85 in 10.0 mi NE 5.8 mph - N/A   Scattered Clouds
9:15 PM 73.4 °F - 62.6 °F 69% 29.87 in 10.0 mi NNE 4.6 mph - N/A   Scattered Clouds
9:35 PM 71.6 °F - 62.6 °F 73% 29.88 in 10.0 mi North 4.6 mph - N/A   Scattered Clouds
9:55 PM 71.6 °F - 62.6 °F 73% 29.88 in 10.0 mi NE 4.6 mph - N/A   Scattered Clouds
10:15 PM 71.6 °F - 62.6 °F 73% 29.88 in 10.0 mi Calm Calm - N/A   Clear
10:35 PM 71.6 °F - 62.6 °F 73% 29.89 in 10.0 mi Calm Calm - N/A   Clear
10:55 PM 69.8 °F - 62.6 °F 78% 29.89 in 10.0 mi NE 4.6 mph - N/A   Clear
11:15 PM 68.0 °F - 62.6 °F 83% 29.89 in 10.0 mi North 4.6 mph - N/A   Clear
11:35 PM 68.0 °F - 62.6 °F 83% 29.89 in 10.0 mi North 4.6 mph - N/A   Clear
11:55 PM 68.0 °F - 60.8 °F 78% 29.89 in 10.0 mi NNE 3.5 mph - N/A   Clear